This demonstration page uses our WeatherBlox Daily Observations layout. Learn more.

Left ArrowRight Arrow

Hourly Observations for December 21, 2020

Temp ( °F °C ) Dew Point ( °F °C ) Humidity (%) Winds ( mph kmh ) Pressure ( in mb ) Visibility ( mi km ) Precip ( " mm )
12:15 am 00:15 Clear 36 2.1 28 -2 75 75 W 12 19 29.96 1015 10 16 N/A
12:35 am 00:35 Clear 36 2.1 28 -2 75 75 W 9 15 29.96 1015 10 16 N/A
12:55 am 00:55 Clear 35 1.8 28 -2.1 76 76 WNW 7 11 29.97 1015 10 16 N/A
1:15 am 01:15 Clear 36 2.1 28 -2 75 75 WNW 7 11 29.97 1015 10 16 N/A
1:35 am 01:35 Clear 35 1.6 29 -1.9 78 78 WSW 7 11 29.99 1016 10 16 N/A
1:55 am 01:55 Clear 38 3.2 29 -1.5 72 72 W 7 11 29.96 1015 10 16 N/A
2:15 am 02:15 Clear 38 3.2 29 -1.7 71 71 WNW 6 9 29.96 1015 10 16 N/A
2:35 am 02:35 Clear 39 4 29 -1.5 68 68 W 6 9 29.97 1015 10 16 N/A
2:55 am 02:55 Clear 38 3.1 29 -1.5 72 72 W 8 13 30.00 1016 10 16 N/A
3:15 am 03:15 Clear 37 2.5 29 -1.9 73 73 W 7 11 30.00 1016 10 16 N/A
3:35 am 03:35 Clear 36 2.4 29 -1.9 74 74 W 8 13 30.01 1016 10 16 N/A
3:55 am 03:55 Clear 35 1.6 28 -2 77 77 W 9 15 30.03 1017 10 16 N/A
4:15 am 04:15 Clear 35 1.6 28 -2 77 77 W 8 13 30.04 1017 10 16 N/A
4:35 am 04:35 Clear 36 2.1 28 -2 75 75 W 9 15 30.04 1017 10 16 N/A
4:55 am 04:55 Clear 36 2.2 28 -2 74 74 WNW 8 13 30.04 1017 10 16 N/A
5:15 am 05:15 Clear 33 0.4 27 -2.7 80 80 NW 8 13 30.06 1018 10 16 N/A
5:35 am 05:35 Clear 34 1.1 28 -2.1 79 79 NW 8 13 30.06 1018 10 16 N/A
5:55 am 05:55 Clear 34 1.3 28 -2 79 79 WNW 8 13 30.07 1018 10 16 N/A
6:15 am 06:15 Clear 35 1.7 29 -1.9 77 77 WNW 7 11 30.08 1019 10 16 N/A
6:35 am 06:35 Clear 35 1.9 29 -1.9 76 76 WNW 7 11 30.09 1019 10 16 N/A
6:55 am 06:55 Clear 34 1.2 28 -2.1 79 79 WNW 7 11 30.10 1019 10 16 N/A
7:15 am 07:15 Clear 34 1 28 -2.4 78 78 WNW 5 7 30.12 1020 10 16 N/A
7:35 am 07:35 Clear 34 1 28 -2.2 79 79 WNW 5 7 30.13 1020 10 16 N/A
7:55 am 07:55 Clear 33 0.5 28 -2.1 83 83 W 6 9 30.13 1020 10 16 N/A
8:15 am 08:15 Sunny 34 1 29 -1.8 82 82 W 8 13 30.14 1021 10 16 N/A
8:35 am 08:35 Sunny 36 2 29 -1.6 77 77 W 9 15 30.15 1021 10 16 N/A
8:55 am 08:55 Sunny 38 3.1 29 -1.5 72 72 W 8 13 30.14 1021 10 16 N/A
9:15 am 09:15 Sunny 38 3.1 30 -1.3 73 73 W 7 11 30.15 1021 10 16 N/A
9:35 am 09:35 Sunny 38 3.5 30 -1.1 72 72 W 9 15 30.15 1021 10 16 N/A
9:55 am 09:55 Sunny 40 4.7 31 -0.7 68 68 W 7 11 30.15 1021 10 16 N/A
10:15 am 10:15 Sunny 42 5.4 31 -0.5 66 66 WNW 7 11 30.14 1021 10 16 N/A
10:35 am 10:35 Sunny 43 6 31 -0.4 64 64 WNW 8 13 30.15 1021 10 16 N/A
10:55 am 10:55 Sunny 44 6.5 32 undefined 64 64 NW 7 11 30.14 1021 10 16 N/A
11:15 am 11:15 Sunny 45 7 32 undefined 61 61 WNW 7 11 30.15 1021 10 16 N/A
11:35 am 11:35 Sunny 45 7.3 32 0.1 61 61 NW 8 13 30.15 1021 10 16 N/A
11:55 am 11:55 Sunny 47 8.1 33 0.6 59 59 WNW 8 13 30.14 1021 10 16 N/A
12:15 pm 12:15 Sunny 48 8.8 33 0.7 57 57 NW 10 17 30.12 1020 10 16 N/A
12:35 pm 12:35 Sunny 49 9.4 33 0.6 55 55 WNW 10 17 30.11 1020 10 16 N/A
12:55 pm 12:55 Sunny 50 10 33 0.3 51 51 WNW 8 13 30.10 1019 10 16 N/A
1:15 pm 13:15 Sunny 51 10.5 34 1.1 52 52 W 10 17 30.10 1019 10 16 N/A
1:35 pm 13:35 Sunny 52 11 33 0.5 49 49 W 7 11 30.08 1019 10 16 N/A
1:55 pm 13:55 Sunny 54 12 32 0.2 45 45 W 12 19 30.08 1018 10 16 N/A
2:15 pm 14:15 Sunny 55 12.6 34 1.2 46 46 WSW 7 11 30.06 1018 10 16 N/A
2:35 pm 14:35 Sunny 54 12.3 33 0.3 44 44 W 10 17 30.06 1018 10 16 N/A
2:55 pm 14:55 Sunny 55 12.5 31 -0.3 42 42 W 9 15 30.06 1018 10 16 N/A
3:15 pm 15:15 Sunny 55 12.5 31 -0.3 42 42 WSW 7 11 30.07 1018 10 16 N/A
3:35 pm 15:35 Sunny 54 12.3 32 -0.1 43 43 WSW 8 13 30.07 1018 10 16 N/A
3:55 pm 15:55 Sunny 54 12 32 -0.1 44 44 WSW 8 13 30.09 1019 10 16 N/A
4:15 pm 16:15 Sunny 53 11.5 32 -0.1 45 45 WSW 6 9 30.09 1019 10 16 N/A
4:35 pm 16:35 Sunny 52 11.1 31 -0.4 45 45 WSW 5 7 30.08 1019 10 16 N/A
4:55 pm 16:55 Sunny 50 10 32 undefined 50 50 WSW 5 7 30.10 1019 10 16 N/A
5:15 pm 17:15 Clear 48 9.1 31 -0.5 51 51 WSW 3 6 30.11 1020 10 16 N/A
5:35 pm 17:35 Clear 46 8 32 undefined 57 57 N N/A 30.12 1020 10 16 N/A
5:55 pm 17:55 Clear 46 8 32 -0.1 57 57 N N/A 30.13 1020 10 16 N/A
6:15 pm 18:15 Clear 43 6.3 31 -0.5 62 62 N N/A 30.14 1021 10 16 N/A
6:35 pm 18:35 Clear 41 4.9 30 -1.1 65 65 N N/A 30.16 1021 10 16 N/A
6:55 pm 18:55 Clear 39 4 30 -0.9 71 71 N N/A 30.17 1022 10 16 N/A
7:15 pm 19:15 Clear 40 4.5 30 -1 68 68 S 3 6 30.15 1021 10 16 N/A
7:35 pm 19:35 Clear 36 2.3 29 -1.4 77 77 N N/A 30.18 1022 10 16 N/A
7:55 pm 19:55 Clear 37 3 29 -1.4 73 73 N N/A 30.19 1022 10 16 N/A
8:15 pm 20:15 Clear 37 3 29 -1.6 72 72 SSE 3 6 30.18 1022 10 16 N/A
8:35 pm 20:35 Clear 37 2.9 29 -1.6 73 73 SSE 5 7 30.18 1022 10 16 N/A
8:55 pm 20:55 Clear 37 2.6 29 -1.6 74 74 SSE 5 7 30.17 1022 10 16 N/A
9:15 pm 21:15 Clear 36 2.2 28 -2 74 74 N N/A 30.17 1022 10 16 N/A
9:35 pm 21:35 Clear 36 2.2 29 -1.8 75 75 SSE 6 9 30.17 1022 10 16 N/A
9:55 pm 21:55 Clear 37 2.7 28 -2.3 70 70 SSE 5 7 30.17 1022 10 16 N/A
10:15 pm 22:15 Clear 38 3.3 27 -2.6 66 66 S 6 9 30.15 1021 10 16 N/A
10:35 pm 22:35 Clear 38 3.3 27 -2.8 65 65 S 7 11 30.15 1021 10 16 N/A
10:55 pm 22:55 Clear 35 1.8 27 -3 71 71 SSE 7 11 30.17 1022 10 16 N/A
11:15 pm 23:15 Clear 34 1.1 27 -3 74 74 SSE 3 6 30.16 1021 10 16 N/A
11:35 pm 23:35 Clear 35 1.8 28 -2.5 73 73 SSE 8 13 30.15 1021 10 16 N/A
11:55 pm 23:55 Clear 37 2.6 28 -2.3 70 70 S 9 15 30.14 1021 10 16 N/A

Powered by AerisWeather